Date String (YYYY-MM-DD hh:mm:ss) UTC,Instrument flags,absolute air pressure of the measurement (hPa),sample flow rate (lpm),inlet stack bypass flow (lpm),air temperature of the measurement (°C),ambient temperature measured by the external sensor (°C),aerosol sample conditioner tube jacket temperature (°C),OPC LED temperature (°C),internal box temperature (°C),relative humidity of the measurement (%),span deviation,mass concentration of particles derived from Lorenz-Mie calculation of OPC scattering (μg/m³),mass concentration of particles derived from Lorenz-Mie calculation of OPC scattering (μg/m³),mass concentration of particles derived from Lorenz-Mie calculation of OPC scattering (μg/m³)
DateTimeUTC,F1_M11,P_M11,Q1_M11,Q2_M11,T1_M11,T2_M11,T3_M11,T4_M11,T5_M11,U1_M11,ZSPAN_M11,X2_M11,X0_M11,X1_M11
2023-09-11 03:00:00,SystemResetWarning,0838.0,4.99,000.00,029.6,027.6,000.0,037.6,030.6,34.1,-000.0,0004.24,0007.46,0003.93
2023-09-11 03:01:00,SystemResetWarning,0838.0,5.00,000.00,029.6,027.6,000.0,037.6,030.6,34.0,-000.1,0004.23,0006.95,0003.92
2023-09-11 03:02:00,SystemResetWarning,0837.9,5.00,000.00,029.6,027.6,000.0,037.6,030.6,34.1,-000.0,0004.21,0006.65,0003.90
2023-09-11 03:03:00,SystemResetWarning,0837.9,5.01,000.00,029.6,027.7,000.0,037.7,030.7,34.1,-000.2,0004.19,0006.49,0003.88
2023-09-11 03:04:00,SystemResetWarning,0838.0,5.00,000.00,029.6,027.7,000.0,037.7,030.7,34.0,-000.1,0004.16,0006.38,0003.86
2023-09-11 03:05:00,SystemResetWarning,0838.0,5.00,000.00,029.6,027.7,000.0,037.7,030.8,34.1,-000.1,0004.15,0006.27,0003.86
2023-09-11 03:06:00,SystemResetWarning,0838.1,5.00,000.00,029.6,027.7,000.0,037.7,030.8,34.2,-000.3,0004.15,0006.25,0003.87
2023-09-11 03:07:00,SystemResetWarning,0838.2,5.00,000.00,029.6,027.8,000.0,037.7,030.8,34.2,-000.6,0004.26,0006.55,0003.97
2023-09-11 03:08:00,SystemResetWarning,0838.2,5.00,000.00,029.6,027.8,000.0,037.7,030.8,34.2,-000.0,0004.41,0006.90,0004.10
2023-09-11 03:09:00,SystemResetWarning,0838.1,5.00,000.00,029.6,027.8,000.0,037.7,030.8,34.2,-000.1,0004.54,0007.19,0004.21
2023-09-11 03:10:00,SystemResetWarning,0838.1,5.00,000.00,029.6,027.8,000.0,037.7,030.8,34.3,-000.6,0004.59,0007.29,0004.27
2023-09-11 03:11:00,SystemResetWarning,0838.1,5.00,000.00,029.7,027.8,000.0,037.8,030.8,34.3,-000.8,0004.61,0007.37,0004.33
2023-09-11 03:12:00,SystemResetWarning,0838.2,5.00,000.00,029.7,027.8,000.0,037.8,030.9,34.4,-000.7,0004.65,0007.44,0004.38
2023-09-11 03:13:00,SystemResetWarning,0838.1,5.00,000.00,029.6,027.9,000.0,037.8,030.9,34.4,-001.1,0004.69,0007.50,0004.42
2023-09-11 03:14:00,SystemResetWarning,0838.1,5.00,000.00,029.6,027.9,000.0,037.8,030.9,34.3,-001.3,0004.77,0007.62,0004.49
2023-09-11 03:15:00,SystemResetWarning,0838.0,5.00,000.00,029.6,027.9,000.0,037.8,030.9,34.3,-001.1,0004.84,0007.73,0004.55
2023-09-11 03:16:00,SystemResetWarning,0838.0,5.00,000.00,029.7,027.9,000.0,037.8,030.9,34.4,-000.9,0004.89,0007.80,0004.62
2023-09-11 03:17:00,SystemResetWarning,0837.9,5.00,000.00,029.7,027.9,000.0,037.8,030.9,34.4,-001.0,0004.94,0008.36,0004.68
2023-09-11 03:18:00,SystemResetWarning,0838.0,5.00,000.00,029.7,027.9,000.0,037.8,031.0,34.4,-000.9,0004.92,0008.35,0004.66
2023-09-11 03:19:00,SystemResetWarning,0838.0,4.99,000.00,029.7,027.5,000.0,037.8,030.9,34.5,-001.1,0004.93,0008.42,0004.66
2023-09-11 03:20:00,SystemResetWarning,0838.0,5.00,000.00,029.6,025.7,000.0,037.7,030.6,34.5,-001.1,0005.01,0008.58,0004.72
2023-09-11 03:21:00,SystemResetWarning,0838.0,5.00,000.00,029.5,024.8,000.0,037.6,030.4,34.7,-000.7,0005.15,0008.78,0004.84
2023-09-11 03:22:00,SystemResetWarning,0838.0,4.99,000.00,029.4,024.8,000.0,037.6,030.2,35.1,-000.4,0005.28,0008.95,0004.96
2023-09-11 03:23:00,SystemResetWarning,0837.9,5.03,000.00,029.3,025.1,000.0,037.6,030.1,35.2,-000.6,0005.42,0009.40,0005.10
2023-09-11 03:24:00,SystemResetWarning,0838.0,4.97,000.00,029.5,025.4,000.0,037.6,030.2,34.7,-000.4,0005.58,0009.65,0005.25
2023-09-11 03:25:00,SystemResetWarning,0838.0,5.01,000.00,029.6,025.8,000.0,037.6,030.2,34.4,0000.3,0005.72,0009.77,0005.42
2023-09-11 03:26:00,SystemResetWarning,0838.0,5.01,000.00,029.7,026.1,000.0,037.6,030.3,34.2,0000.6,0005.84,0009.89,0005.56
2023-09-11 03:27:00,SystemResetWarning,0838.0,4.99,000.00,029.7,026.4,000.0,037.6,030.3,34.2,0000.7,0006.04,0010.19,0005.75
2023-09-11 03:28:00,SystemResetWarning,0838.0,5.00,000.00,029.7,026.7,000.0,037.6,030.3,34.2,0000.6,0006.31,0010.23,0005.96
2023-09-11 03:29:00,SystemResetWarning,0838.0,5.00,000.00,029.7,026.8,000.0,037.7,030.4,34.2,0000.6,0006.50,0010.40,0006.12
2023-09-11 03:30:00,SystemResetWarning,0838.0,5.00,000.00,029.7,027.0,000.0,037.7,030.4,34.2,0000.6,0006.68,0010.66,0006.29
2023-09-11 03:31:00,SystemResetWarning,0838.0,5.00,000.00,029.7,027.2,000.0,037.8,030.4,34.3,0000.9,0006.77,0010.76,0006.40
2023-09-11 03:32:00,SystemResetWarning,0838.1,5.00,000.00,029.8,027.3,000.0,037.8,030.5,34.2,0000.8,0006.92,0011.02,0006.54
2023-09-11 03:33:00,SystemResetWarning,0838.2,5.01,000.00,029.8,027.4,000.0,037.8,030.5,34.2,0000.7,0007.09,0011.25,0006.69
2023-09-11 03:34:00,SystemResetWarning,0838.1,5.00,000.00,029.8,027.4,000.0,037.8,030.5,34.1,0000.6,0007.29,0011.31,0006.88
2023-09-11 03:35:00,SystemResetWarning,0838.1,4.99,000.00,029.8,027.5,000.0,037.8,030.6,34.3,0000.5,0007.47,0011.46,0007.04
2023-09-11 03:36:00,SystemResetWarning,0838.0,5.00,000.00,029.8,027.6,000.0,037.9,030.6,34.2,0000.3,0007.67,0011.80,0007.21
2023-09-11 03:37:00,SystemResetWarning,0838.0,5.00,000.00,029.8,027.6,000.0,037.9,030.7,34.3,0000.3,0007.86,0012.06,0007.37
2023-09-11 03:38:00,SystemResetWarning,0837.9,5.00,000.00,029.8,027.6,000.0,037.9,030.7,34.2,0000.3,0008.02,0012.28,0007.51
2023-09-11 03:39:00,SystemResetWarning,0838.0,5.00,000.00,029.8,027.7,000.0,037.9,030.8,34.2,0000.4,0008.15,0012.39,0007.66
2023-09-11 03:40:00,SystemResetWarning,0838.0,5.00,000.00,029.8,027.7,000.0,037.9,030.8,34.1,0000.4,0008.31,0012.69,0007.82
2023-09-11 03:41:00,SystemResetWarning,0838.1,5.00,000.00,029.8,027.8,000.0,037.9,030.8,34.1,0000.6,0008.45,0012.91,0007.95
2023-09-11 03:42:00,SystemResetWarning,0838.1,5.00,000.00,029.8,027.8,000.0,037.9,030.9,34.0,0000.3,0008.59,0013.13,0008.07
2023-09-11 03:43:00,SystemResetWarning,0838.1,4.99,000.00,029.8,027.8,000.0,037.9,030.9,34.1,0000.3,0008.66,0013.58,0008.14
2023-09-11 03:44:00,SystemResetWarning,0838.2,5.00,000.00,029.8,027.8,000.0,037.9,030.9,34.0,0000.3,0008.70,0013.72,0008.18
2023-09-11 03:45:00,SystemResetWarning,0838.2,5.00,000.00,029.8,027.9,000.0,037.9,030.9,34.1,0000.4,0008.79,0013.87,0008.25
2023-09-11 03:46:00,SystemResetWarning,0838.2,5.00,000.00,029.8,027.7,000.0,037.9,030.9,34.0,0000.4,0008.84,0013.94,0008.29
2023-09-11 03:47:00,SystemResetWarning,0838.2,5.00,000.00,029.8,026.2,000.0,037.8,030.6,34.0,0000.3,0008.83,0013.87,0008.33
2023-09-11 03:48:00,SystemResetWarning,0838.2,5.00,000.00,029.7,025.0,000.0,037.7,030.4,34.1,-000.1,0008.89,0013.96,0008.37
2023-09-11 03:49:00,SystemResetWarning,0838.0,5.00,000.00,029.5,024.8,000.0,037.7,030.2,34.4,-000.3,0008.90,0013.96,0008.41
2023-09-11 03:50:00,SystemResetWarning,0837.9,5.00,000.00,029.4,025.0,000.0,037.7,030.0,34.7,-000.4,0008.93,0014.02,0008.44
2023-09-11 03:51:00,SystemResetWarning,0838.0,5.01,000.00,029.3,025.3,000.0,037.7,029.9,34.9,-000.6,0009.02,0014.11,0008.52
2023-09-11 03:52:00,SystemResetWarning,0837.7,4.98,000.00,029.2,025.7,000.0,037.7,030.0,35.1,-000.6,0009.05,0014.16,0008.55
2023-09-11 03:53:00,SystemResetWarning,0837.8,5.02,000.00,029.4,026.0,000.0,037.6,030.2,34.8,-000.8,0009.11,0014.29,0008.58
2023-09-11 03:54:00,SystemResetWarning,0837.8,4.97,000.00,029.5,026.3,000.0,037.6,030.3,34.5,-000.8,0009.18,0014.03,0008.63
2023-09-11 03:55:00,SystemResetWarning,0837.7,5.02,000.00,029.6,026.5,000.0,037.6,030.3,34.4,-000.7,0009.25,0014.03,0008.70
2023-09-11 03:56:00,SystemResetWarning,0837.7,4.98,000.00,029.6,026.7,000.0,037.6,030.4,34.3,-000.7,0009.24,0014.03,0008.73
2023-09-11 03:57:00,SystemResetWarning,0837.8,5.00,000.00,029.7,026.9,000.0,037.6,030.4,34.3,-000.7,0009.29,0014.16,0008.76
2023-09-11 03:58:00,SystemResetWarning,0837.8,5.01,000.00,029.7,027.0,000.0,037.7,030.5,34.2,-000.7,0009.35,0014.29,0008.79
2023-09-11 03:59:00,SystemResetWarning,0837.8,5.01,000.00,029.7,027.1,000.0,037.7,030.5,34.2,-000.5,0009.36,0014.31,0008.79
